Tracking 30990 objects as of 8-Jul-2025
HD Live streaming from Space Station
objects crossing your sky now

BEIDOU 3M23

Track BEIDOU 3M23 now!
BEIDOU 3M23 is classified as:


NORAD ID: 44542
Int'l Code: 2019-061A
Perigee: 21,512.6 km
Apogee: 21,558.1 km
Inclination: 54.4 °
Period: 773.2 minutes
Semi major axis: 27906 km
RCS: Unknown
Launch date: September 22, 2019
Source: People's Republic of China (PRC)
Launch site: Xichang Space Center, China (XSC)
Your satellite tracking list
Your tracking list is empty




NASA's NSSDC Master Catalog

Two Line Element Set (TLE):
1 44542U 19061A   25188.51733240  .00000106  00000-0  00000-0 0  9992
2 44542  54.4115 194.3513 0008163 349.8990  10.1204  1.86229317 39376
Source of the keplerian elements: AFSPC